FW2154 Hermosillo MX current weather conditions

sailwx.info

Wind from 045 at 0 knots gusting 0

Air temperature 23.3° C
Dewpoint 17.5° C

Last reported at 2020-May-31 13:05 UTC.
Time now 2020-May-31 13:40 UTC

Location: N 29°39' W 112°21'.
View on Google Maps.

See reports from other nearby stations

  
Tides and Currents Weather Stations Pressure Air Temp Water Temp Dewpoint Dewpoint Depression Visibility Wind Speed Wind Dir Waves Ship Positions
date/time (UTC)wind fromknots sea level pressurealtimeterstation pressurevisibilityair tempwater tempwave heightnotes
2020-May-31 13:05 045 0 gusting 0 23.3
2020-May-31 12:55 045 0 gusting 1 22.8
2020-May-31 12:45 045 0 gusting 1 22.8
2020-May-31 12:35 022 2 gusting 3 22.8
2020-May-31 12:25 22.8
2020-May-31 12:05 22.8
2020-May-31 11:55 22.8
2020-May-31 11:45 22.8
2020-May-31 11:35 22.8
2020-May-31 11:25 23.3
2020-May-31 11:15 23.3
2020-May-31 11:05 23.3
2020-May-31 10:55 067 1 gusting 2 23.3
2020-May-31 10:45 067 1 gusting 1 22.8
2020-May-31 10:35 067 0 gusting 1 22.2
2020-May-31 10:25 22.8
2020-May-31 10:15 22.8
2020-May-31 10:05 067 0 gusting 1 22.2
2020-May-31 09:55 067 0 gusting 0 22.8
2020-May-31 09:45 22.8
2020-May-31 09:35 22.8
2020-May-31 09:25 22.8
2020-May-31 09:15 23.3
2020-May-31 09:05 067 0 gusting 0 22.8
2020-May-31 08:55 067 0 gusting 1 22.8
2020-May-31 08:45 067 1 gusting 2 23.3
2020-May-31 08:35 112 0 gusting 0 23.9
2020-May-31 08:25 112 0 gusting 0 23.9
2020-May-31 08:15 23.9
2020-May-31 08:05 112 0 gusting 1 23.9
2020-May-31 07:55 112 0 gusting 0 23.9
2020-May-31 07:45 112 1 gusting 1 24.4
2020-May-31 07:35 112 0 gusting 1 25.6
2020-May-31 07:25 090 1 gusting 3 25.6
2020-May-31 07:15 25.6
2020-May-31 07:05 090 0 gusting 0 25.6
2020-May-31 06:55 25.6
2020-May-31 06:45 090 0 gusting 0 25.6
2020-May-31 06:35 090 0 gusting 1 26.1
2020-May-31 06:25 090 0 gusting 0 26.1
2020-May-31 06:15 090 2 gusting 3 26.7
2020-May-31 06:05 27.8
2020-May-31 05:55 270 2 gusting 3 27.2
2020-May-31 05:45 157 1 gusting 3 26.1
2020-May-31 05:35 26.1
2020-May-31 05:25 135 0 gusting 0 26.1
2020-May-31 05:15 26.7
2020-May-31 05:05 135 1 gusting 2 27.2
2020-May-31 04:55 27.2
2020-May-31 04:45 135 1 gusting 2 28.3
2020-May-31 04:35 135 0 gusting 1 28.3
2020-May-31 04:25 090 0 gusting 0 28.3
2020-May-31 04:15 180 1 gusting 2 29.4
2020-May-31 04:05 30.0
2020-May-31 03:55 30.6
2020-May-31 03:45 180 1 gusting 2 30.6
2020-May-31 03:35 30.6
2020-May-31 03:25 30.6
2020-May-31 03:15 180 1 gusting 2 30.6
2020-May-31 03:05 31.1
2020-May-31 02:55 180 0 gusting 1 31.1
2020-May-31 02:45 180 1 gusting 2 31.1
2020-May-31 02:35 180 1 gusting 1 31.7
2020-May-31 02:25 180 2 gusting 2 32.2
2020-May-31 02:15 202 2 gusting 3 32.8
2020-May-31 02:05 225 3 gusting 5 32.8
2020-May-31 01:55 202 3 gusting 5 33.3
2020-May-31 01:45 202 4 gusting 6 33.9
2020-May-31 01:35 180 4 gusting 6 34.4
2020-May-31 01:25 180 5 gusting 6 35.0
2020-May-31 01:15 247 3 gusting 5 36.1
2020-May-31 01:05 225 5 gusting 7 36.1
2020-May-31 00:55 225 4 gusting 6 36.1
2020-May-31 00:45 247 3 gusting 7 35.6
2020-May-31 00:35 247 5 gusting 9 35.6
2020-May-31 00:25 247 6 gusting 8 36.1
2020-May-31 00:15 247 4 gusting 7 36.1
2020-May-31 00:05 247 5 gusting 6 37.2
2020-May-30 23:55 225 3 gusting 9 37.8
2020-May-30 23:45 225 6 gusting 7 37.8
2020-May-30 23:35 247 3 gusting 5 37.8
2020-May-30 23:25 247 5 gusting 7 37.8
2020-May-30 23:15 247 5 gusting 6 37.8
2020-May-30 23:05 202 6 gusting 10 37.8
2020-May-30 22:55 202 6 gusting 10 37.8
2020-May-30 22:45 225 6 gusting 10 37.8
2020-May-30 22:35 202 6 gusting 9 37.2
2020-May-30 22:25 202 6 gusting 9 37.8
2020-May-30 22:15 180 8 gusting 11 36.7
2020-May-30 22:05 180 7 gusting 11 36.7
2020-May-30 21:55 202 7 gusting 11 36.7
2020-May-30 21:45 180 7 gusting 9 37.2
2020-May-30 21:35 180 6 gusting 9 36.7
2020-May-30 21:25 180 6 gusting 10 37.2
2020-May-30 21:15 202 4 gusting 7 36.7
2020-May-30 21:05 180 6 gusting 9 36.7
2020-May-30 20:55 180 7 gusting 12 37.2
2020-May-30 20:45 202 7 gusting 13 37.2
2020-May-30 20:35 180 7 gusting 10 37.2
2020-May-30 20:25 202 7 gusting 14 37.2
2020-May-30 20:15 180 7 gusting 11 36.7
2020-May-30 20:05 180 7 gusting 12 36.7
2020-May-30 19:55 202 6 gusting 7 37.2
2020-May-30 19:45 180 6 gusting 8 37.2
2020-May-30 19:35 180 7 gusting 13 37.8
2020-May-30 19:25 202 6 gusting 8 37.8
2020-May-30 19:15 202 8 gusting 11 37.2
2020-May-30 19:05 225 5 gusting 10 37.2
2020-May-30 18:55 202 6 gusting 9 37.2
2020-May-30 18:45 202 6 gusting 7 37.2
2020-May-30 18:35 202 6 gusting 12 37.8
2020-May-30 18:25 180 7 gusting 11 38.3
2020-May-30 18:15 157 8 gusting 10 38.3
2020-May-30 18:05 090 4 gusting 6 38.3
2020-May-30 17:55 315 4 gusting 6 37.8
2020-May-30 17:45 135 1 gusting 2 37.2
2020-May-30 17:35 112 1 gusting 5 36.7
2020-May-30 17:25 135 1 gusting 2 36.7
2020-May-30 17:15 090 0 gusting 2 36.1
2020-May-30 17:05 022 1 gusting 2 35.6
2020-May-30 16:55 090 2 gusting 2 35.6
2020-May-30 16:45 067 1 gusting 2 35.0
2020-May-30 16:35 180 1 gusting 2 34.4
2020-May-30 16:25 112 3 gusting 5 33.9
2020-May-30 16:15 067 0 gusting 1 33.3
2020-May-30 16:05 112 2 gusting 3 32.8
2020-May-30 15:55 090 1 gusting 1 32.2
2020-May-30 15:45 090 2 gusting 2 31.7
2020-May-30 15:35 090 1 gusting 2 31.1
2020-May-30 15:25 090 1 gusting 2 30.6
2020-May-30 15:15 090 3 gusting 4 30.0
2020-May-30 15:05 112 2 gusting 3 29.4
2020-May-30 14:55 112 2 gusting 3 29.4
2020-May-30 14:45 337 0 gusting 0 28.9
2020-May-30 14:35 27.8
2020-May-30 14:25 337 1 gusting 3 27.2
2020-May-30 14:15 337 1 gusting 1 26.1
2020-May-30 14:05 337 1 gusting 2 25.6
2020-May-30 13:55 337 1 gusting 2 25.0
2020-May-30 13:45 337 1 gusting 2 24.4
2020-May-30 13:35 337 1 gusting 2 23.9
2020-May-30 13:25 337 0 gusting 1 23.3
2020-May-30 13:15 22.2
2020-May-30 13:05 337 0 gusting 0 22.2
2020-May-30 12:55 22.2
2020-May-30 12:45 22.2
2020-May-30 12:35 22.2
2020-May-30 12:25 337 0 gusting 1 22.2
2020-May-30 12:15 337 0 gusting 1 21.7
2020-May-30 12:05 337 2 gusting 2 21.7
2020-May-30 11:55 337 1 gusting 2 21.1
2020-May-30 11:45 337 1 gusting 2 21.1
2020-May-30 11:35 21.7
2020-May-30 11:25 21.7
2020-May-30 11:15 337 0 gusting 1 21.1
2020-May-30 11:05 21.1
2020-May-30 10:55 337 0 gusting 0 21.1
2020-May-30 10:45 337 0 gusting 0 21.1
2020-May-30 10:35 22.2
2020-May-30 10:25 337 1 gusting 1 22.2
2020-May-30 10:15 337 1 gusting 2 21.7
2020-May-30 10:05 337 0 gusting 1 21.1
2020-May-30 09:55 337 0 gusting 0 21.1
2020-May-30 09:45 21.7
2020-May-30 09:35 337 0 gusting 0 22.2
2020-May-30 09:25 337 0 gusting 0 23.3
2020-May-30 09:15 23.3
2020-May-30 09:05 337 0 gusting 1 23.3
2020-May-30 08:55 337 1 gusting 2 23.3
2020-May-30 08:45 337 1 gusting 2 22.8
2020-May-30 08:35 337 1 gusting 1 22.8
2020-May-30 08:25 22.8
2020-May-30 08:15 337 0 gusting 1 22.2
2020-May-30 08:05 337 0 gusting 0 22.8
2020-May-30 07:55 337 1 gusting 2 25.0
2020-May-30 07:45 337 0 gusting 1 25.6
2020-May-30 07:35 337 0 gusting 0 25.6
2020-May-30 07:25 337 0 gusting 1 25.0
2020-May-30 07:16 25.6
2020-May-30 07:05 337 0 gusting 1 25.6
2020-May-30 06:55 337 2 gusting 3 25.0
2020-May-30 06:45 045 1 gusting 1 25.0
2020-May-30 06:35 045 0 gusting 1 24.4
2020-May-30 06:25 045 1 gusting 1 24.4
2020-May-30 06:15 24.4
2020-May-30 06:05 24.4
2020-May-30 05:55 24.4
2020-May-30 05:45 25.0
2020-May-30 05:35 24.4
2020-May-30 05:25 25.0
2020-May-30 05:15 25.0
2020-May-30 05:05 25.0
2020-May-30 04:55 270 0 gusting 1 26.1
2020-May-30 04:45 26.7
2020-May-30 04:35 27.2
2020-May-30 04:25 270 0 gusting 1 27.2
2020-May-30 04:15 27.2
2020-May-30 04:05 270 0 gusting 1 27.2
2020-May-30 03:55 270 0 gusting 1 27.2
2020-May-30 03:45 202 1 gusting 2 27.2
2020-May-30 03:35 202 1 gusting 2 27.2
2020-May-30 03:25 202 0 gusting 0 27.2
2020-May-30 03:15 27.8
2020-May-30 03:05 27.8
2020-May-30 02:55 202 1 gusting 2 27.8
2020-May-30 02:45 225 1 gusting 2 27.8
2020-May-30 02:35 202 3 gusting 5 27.8
2020-May-30 02:25 202 3 gusting 5 28.3
2020-May-30 02:15 157 4 gusting 6 28.9
2020-May-30 02:05 202 5 gusting 6 29.4
2020-May-30 01:55 202 5 gusting 7 29.4
2020-May-30 01:45 202 4 gusting 6 29.4
2020-May-30 01:35 180 6 gusting 7 30.0
2020-May-30 01:25 202 6 gusting 7 30.0
2020-May-30 01:15 202 6 gusting 7 30.6
2020-May-30 01:05 180 4 gusting 7 31.1
2020-May-30 00:55 180 6 gusting 8 31.7
2020-May-30 00:45 180 6 gusting 9 32.8
2020-May-30 00:35 202 6 gusting 7 34.4
2020-May-30 00:25 202 4 gusting 6 34.4
2020-May-30 00:15 225 5 gusting 8 35.0
2020-May-30 00:05 180 7 gusting 12 35.0
2020-May-29 23:55 202 5 gusting 7 35.6
2020-May-29 23:45 202 6 gusting 8 35.6
2020-May-29 23:35 202 6 gusting 10 35.6
2020-May-29 23:25 180 6 gusting 9 36.1
2020-May-29 23:15 180 5 gusting 6 36.7
2020-May-29 23:05 202 6 gusting 9 37.2
2020-May-29 22:55 202 6 gusting 8 37.2
2020-May-29 22:45 202 5 gusting 7 37.2
2020-May-29 22:35 180 6 gusting 9 37.8
2020-May-29 22:25 202 5 gusting 6 37.8
2020-May-29 22:15 202 5 gusting 7 37.8
2020-May-29 22:05 180 6 gusting 8 37.2
2020-May-29 21:55 180 5 gusting 11 37.2
2020-May-29 21:45 180 6 gusting 7 37.2
2020-May-29 21:35 225 6 gusting 8 37.2
2020-May-29 21:25 202 5 gusting 7 37.8
2020-May-29 21:15 225 6 gusting 9 37.8
2020-May-29 21:05 180 6 gusting 9 36.7
2020-May-29 20:55 180 6 gusting 9 36.7
2020-May-29 20:45 202 7 gusting 11 36.1
2020-May-29 20:35 202 7 gusting 11 36.7
2020-May-29 20:25 202 6 gusting 9 36.1
2020-May-29 20:15 202 6 gusting 10 37.2
2020-May-29 20:05 202 8 gusting 10 37.2
2020-May-29 19:55 180 6 gusting 10 37.2
2020-May-29 19:45 225 6 gusting 10 36.1
2020-May-29 19:35 202 6 gusting 10 36.1
2020-May-29 19:25 202 4 gusting 6 35.6
2020-May-29 19:15 202 5 gusting 9 36.1
2020-May-29 19:05 202 5 gusting 7 36.1
2020-May-29 18:55 180 6 gusting 7 35.6
2020-May-29 18:45 202 3 gusting 5 36.1
2020-May-29 18:35 180 2 gusting 4 35.6
2020-May-29 18:25 180 6 gusting 9 36.1
2020-May-29 18:15 180 4 gusting 6 35.6
2020-May-29 18:05 135 6 gusting 10 35.0
2020-May-29 17:55 202 4 gusting 6 34.4
2020-May-29 17:45 112 3 gusting 5 33.9
2020-May-29 17:35 090 5 gusting 7 33.9
2020-May-29 17:25 112 2 gusting 3 33.3
2020-May-29 17:15 135 3 gusting 6 32.8
2020-May-29 17:05 112 6 gusting 9 32.8
2020-May-29 16:55 112 3 gusting 5 32.2
2020-May-29 16:45 135 5 gusting 6 31.7
2020-May-29 16:35 135 5 gusting 6 31.1
2020-May-29 16:25 135 2 gusting 4 30.6
2020-May-29 16:15 112 2 gusting 5 30.0
2020-May-29 16:05 067 4 gusting 6 30.0
2020-May-29 15:55 067 4 gusting 6 29.4
2020-May-29 15:45 112 6 gusting 8 28.9
2020-May-29 15:35 090 4 gusting 6 28.9
2020-May-29 15:25 112 1 gusting 2 28.3
2020-May-29 15:15 090 3 gusting 8 27.8
2020-May-29 15:05 090 5 gusting 6 27.2
2020-May-29 14:55 112 4 gusting 6 26.7
2020-May-29 14:45 045 4 gusting 5 26.1
2020-May-29 14:35 045 3 gusting 6 25.6
2020-May-29 14:25 090 2 gusting 3 25.0
2020-May-29 14:15 067 4 gusting 5 25.0
2020-May-29 14:05 045 3 gusting 5 24.4
2020-May-29 13:55 067 4 gusting 6 23.9
2020-May-29 13:45 067 2 gusting 4 23.9
2020-May-29 13:35 045 2 gusting 3 23.3
2020-May-29 13:25 067 1 gusting 2 22.8
2020-May-29 13:15 067 1 gusting 2 22.2
2020-May-29 13:05 067 1 gusting 1 21.7